Home   Weather   Columbia   Past weeks

Flag for USA Past Weather in Columbia, South Carolina, USA — Yesterday and Last 2 Weeks

Now
64 °F

Clear.


Feels Like: 64 °F
Forecast: 57 / 76 °F
Wind: No wind

Location: Columbia Owens Downtown Airport

Current Time: Jan 18, 2017 at 12:51:04 am

Latest Report: Jan 17, 2017 at 11:53 pm


Visibility: 10 mi

Pressure: 30.10 "Hg

Humidity: 73%

Dew Point: 55 °F

Location of ColumbiaLocation

Past Weather in Columbia — Graph

°F

Columbia Temperature Yesterday

Maximum temperature yesterday: 76 °F (at 2:53 pm)
Minimum temperature yesterday: 53 °F (at 2:35 am)
Average temperature yesterday: 61 °F

High & Low Weather Summary for the Past Weeks

 TemperatureHumidityPressure
High79 °F (Jan 13, 2:53 pm)96% (Jan 17, 2:35 am)30.81 "Hg (Jan 17, 2:35 am)
Low23 °F (Jan 8, 6:53 am)24% (Jan 9, 3:53 pm)29.72 "Hg (Jan 4, 1:53 am)
Average51 °F72%30.25 "Hg
* Reported Jan 2 11:53 pm — Jan 17 11:53 pm, Columbia, Weather by CustomWeather, © 2017

Note: Actual official high and low records may vary slightly from our data, if they occured in-between our weather recording intervals... More about our weather records

Advertising

Columbia Weather History for the Previous 24 Hours

Scroll right to see more
 ConditionsComfort  
Time TempWeatherWind HumidityBarometerVisibility
11:53 pm
Tue, Jan 17
64 °FClear.No wind73%30.10 "Hg10 mi
10:53 pm60 °FClear.No wind80%30.11 "Hg10 mi
9:53 pm63 °FClear.No wind75%30.14 "Hg10 mi
8:53 pm64 °FClear.No wind70%30.15 "Hg10 mi
7:53 pm67 °FClear.3 mph63%30.17 "Hg10 mi
6:53 pm69 °FClear.5 mph59%30.16 "Hg10 mi
5:53 pm71 °FClear.5 mph55%30.14 "Hg10 mi
4:53 pm74 °FPassing clouds.8 mph50%30.14 "Hg10 mi
3:53 pm75 °FSunny.6 mph48%30.14 "Hg10 mi
2:53 pm76 °FPartly sunny.12 mph48%30.14 "Hg10 mi
1:53 pm73 °FSunny.12 mph55%30.16 "Hg10 mi
12:53 pm70 °FSunny.7 mph64%30.20 "Hg10 mi
11:53 am67 °FScattered clouds.7 mph73%30.24 "Hg10 mi
11:14 am64 °FPartly sunny.6 mph81%30.27 "Hg10 mi
11:07 am63 °FPartly sunny.8 mph84%30.27 "Hg10 mi
10:53 am61 °FOvercast.6 mph90%30.27 "Hg7 mi
10:34 am60 °FFog.5 mph90%30.28 "Hg5 mi
8:53 am55 °FFog.3 mph93%30.27 "Hg5 mi
4:53 am54 °FFog.No wind93%30.26 "Hg1 mi
4:29 am54 °FFog.No wind93%30.26 "Hg1 mi
4:02 am54 °FFog.No wind93%30.26 "Hg1 mi
3:53 am54 °FFog.No wind93%30.25 "Hg1 mi
3:18 am53 °FFog.No wind96%30.27 "Hg1 mi
2:53 am53 °FFog.No wind96%30.27 "Hg1 mi
2:35 am53 °FFog.No wind96%30.28 "Hg1 mi
2:09 am54 °FFog.No wind93%30.29 "Hg1 mi
1:53 am54 °FFog.No wind93%30.28 "Hg1 mi
1:44 am54 °FFog.No wind93%30.28 "Hg1 mi
12:53 am54 °FFog.3 mph93%30.28 "Hg1 mi
12:41 am54 °FFog.3 mph93%30.29 "Hg1 mi
12:07 am54 °FFog.No wind93%30.31 "Hg1 mi
Weather by CustomWeather, © 2017

See weather overviewHow to use our weather pages